Location: Feigenhofen
(48.4939°N, 10.7793°E)
Time: 23:00:17
(UTC+00:00)

Cosmos 1271 Rocket - Pass Details

Date: 26 May 2022
Orbit: 495 x 539 km, 81.2° (Epoch: 24 June)

Event Time Altitude Azimuth Distance (km) Brightness Sun altitude
Rises 02:24:28 0° 337° (NNW) 2,625 6.6 -8.4°
Reaches altitude 10° 02:26:49 10° 325° (NW) 1,741 5.5 -8.2°
Maximum altitude 02:30:00 26° 268° (W) 1,052 3.9 -7.8°
Drops below altitude 10° 02:33:13 10° 211° (SSW) 1,750 4.8 -7.4°
Enters shadow 02:33:34 - 209° (SSW) 1,873 4.9 -7.4°
